This is the latest recevied weather packets stored in our database for station/object K0QED. If no packets are shown the sender has not sent any weather packets the latest 10 day(s).
| Time | Temp. | Humidity | Pressure | Rain* | Wind** | Luminosity | Snow |
|---|---|---|---|---|---|---|---|
| 1787948100 | 28.33° C | 29% | 1027.6 hPa | 0 mm | - | 138 W/m² | - |
| 1787947794 | 28.89° C | 28% | 1027.9 hPa | 0 mm | - | 116 W/m² | - |
| 1787947493 | 28.89° C | 29% | 1028 hPa | 0 mm | - | 113 W/m² | - |
| 1787947193 | 29.44° C | 28% | 1028.1 hPa | 0 mm | - | 115 W/m² | - |
| 1787946893 | 30.56° C | 28% | 1028 hPa | 0 mm | - | 151 W/m² | - |
| 1787946590 | 30° C | 28% | 1028 hPa | 0 mm | - | 200 W/m² | - |
| 1787946286 | 30.56° C | 28% | 1027.9 hPa | 0 mm | - | 490 W/m² | - |
| 1787945986 | 30° C | 30% | 1028.4 hPa | 0 mm | - | 765 W/m² | - |
| 1787945681 | 30.56° C | 26% | 1028.2 hPa | 0 mm | - | 128 W/m² | - |
| 1787945380 | 30° C | 28% | 1028.2 hPa | 0 mm | - | 183 W/m² | - |
| 1787945077 | 31.11° C | 27% | 1028.5 hPa | 0 mm | - | 152 W/m² | - |
| 1787944773 | 31.67° C | 27% | 1028.2 hPa | 0 mm | - | 753 W/m² | - |
| 1787944469 | 31.11° C | 27% | 1028.4 hPa | 0 mm | - | 745 W/m² | - |
| 1787944164 | 31.11° C | 26% | 1028.6 hPa | 0 mm | - | 773 W/m² | - |
| 1787943859 | 31.11° C | 26% | 1028.9 hPa | 0 mm | - | 767 W/m² | - |
| 1787943554 | 30.56° C | 27% | 1028.2 hPa | 0 mm | - | 713 W/m² | - |
| 1787943249 | 30° C | 28% | 1028.6 hPa | 0 mm | - | 694 W/m² | - |
| 1787942952 | 30.56° C | 28% | 1028.9 hPa | 0 mm | - | 702 W/m² | - |
| 1787942645 | 30.56° C | 28% | 1029 hPa | 0 mm | - | 699 W/m² | - |
| 1787942344 | 30.56° C | 29% | 1028.9 hPa | 0 mm | - | 701 W/m² | - |
| 1787942039 | 30.56° C | 28% | 1029.4 hPa | 0 mm | - | 695 W/m² | - |
| 1787941735 | 30.56° C | 29% | 1029 hPa | 0 mm | - | 692 W/m² | - |
| 1787941433 | 30.56° C | 27% | 1029.1 hPa | 0 mm | - | 684 W/m² | - |
| 1787941132 | 30° C | 29% | 1029.2 hPa | 0 mm | - | 686 W/m² | - |
| 1787940828 | 30.56° C | 31% | 1029.4 hPa | 0 mm | - | 651 W/m² | - |
* Rain latest hour (hover to see other rain measurements)
** Current wind speed in m/s (hover to see current wind gust speed)